Voltar ao catálogo

IRIDIUM 176

AtivoComunicaçõesPO
NORAD 43923·PAYLOAD·🇺🇸 United States

Lançado Jan 11, 2019 de Vandenberg Space Force Base

Loading…

Próximas Passagens (próximas 24 horas)

TLE

AtualizadoSource: CelesTrak SupGP

Época: Sep 14, 2026, 20:41 UTC

1 43923C 19002B   26257.86215278 -.00001021  00000+0 -16212-3 0  2571
2 43923  86.6095 316.0647 0002475  94.6705 190.2206 14.72246147    12

Acompanhe IRIDIUM 176 em tempo real com AllMySat

Download on the App Store